VLG2AT EGKK-EHAM

Flight info

Callsign VLG2AT
Flight time N/A
Altitude 29000
Route FRANE M604 GASBA M197 REDFA
Aircraft A320/M-SDE3FGHIRWY/LB1

Departure

Time 2026-05-04 18:00
Airport London Gatwick Airport (EGKK)

Arrival

Time N/A
Airport Amsterdam Airport Schiphol (EHAM)
Time Latitude Longitude Altitude Speed Heading
2026-05-04 17:12 51.15749 -0.16848 195 ft 0 kts
2026-05-04 17:28 51.15717 -0.16852 205 ft 3 kts 353°
2026-05-04 17:29 51.15676 -0.16810 217 ft 1 kts 258°
2026-05-04 17:29 51.15677 -0.16803 208 ft 0 kts 258°
2026-05-04 17:34 51.15676 -0.16812 217 ft 5 kts 256°
2026-05-04 17:35 51.15650 -0.17001 209 ft 4 kts 257°
2026-05-04 17:35 51.15609 -0.17289 206 ft 13 kts 257°
2026-05-04 17:35 51.15578 -0.17416 211 ft 12 kts 239°
2026-05-04 17:36 51.15539 -0.17521 209 ft 10 kts 253°
2026-05-04 17:36 51.15524 -0.17625 205 ft 9 kts 257°
2026-05-04 17:36 51.15510 -0.17718 207 ft 8 kts 257°
2026-05-04 17:36 51.15497 -0.17800 205 ft 7 kts 253°
2026-05-04 17:37 51.15485 -0.17897 211 ft 9 kts 259°
2026-05-04 17:37 51.15474 -0.17989 211 ft 8 kts 259°
2026-05-04 17:37 51.15464 -0.18068 205 ft 1 kts 259°
2026-05-04 17:38 51.15458 -0.18114 208 ft 15 kts 258°
2026-05-04 17:39 51.15337 -0.18263 205 ft 11 kts 169°
2026-05-04 17:39 51.15265 -0.18241 205 ft 10 kts 169°
2026-05-04 17:39 51.15195 -0.18281 211 ft 20 kts 232°
2026-05-04 17:40 51.15158 -0.18514 214 ft 22 kts 260°
2026-05-04 17:40 51.15134 -0.18709 205 ft 16 kts 258°
2026-05-04 17:40 51.15113 -0.18877 216 ft 15 kts 259°
2026-05-04 17:40 51.15096 -0.19026 209 ft 13 kts 259°
2026-05-04 17:41 51.15078 -0.19157 205 ft 12 kts 257°
2026-05-04 17:41 51.15062 -0.19275 205 ft 10 kts 257°
2026-05-04 17:41 51.15048 -0.19378 208 ft 9 kts 257°
2026-05-04 17:41 51.15034 -0.19470 209 ft 8 kts 257°
2026-05-04 17:42 51.15022 -0.19555 209 ft 11 kts 257°
2026-05-04 17:42 51.14989 -0.19772 205 ft 22 kts 258°
2026-05-04 17:42 51.14955 -0.20010 215 ft 22 kts 257°
2026-05-04 17:42 51.14923 -0.20240 209 ft 21 kts 258°
2026-05-04 17:43 51.14896 -0.20455 212 ft 19 kts 258°
2026-05-04 17:43 51.14865 -0.20648 210 ft 17 kts 257°
2026-05-04 17:43 51.14842 -0.20823 205 ft 15 kts 258°
2026-05-04 17:43 51.14821 -0.20979 210 ft 14 kts 258°
2026-05-04 17:44 51.14810 -0.21066 209 ft 0 kts 258°
2026-05-04 17:45 51.14807 -0.21086 209 ft 5 kts 258°
2026-05-04 17:45 51.14788 -0.21179 214 ft 27 kts 251°
2026-05-04 17:45 51.14743 -0.21400 209 ft 13 kts 213°
2026-05-04 17:46 51.14729 -0.21408 216 ft 0 kts 185°
2026-05-04 17:51 51.14707 -0.21406 212 ft 4 kts 174°
2026-05-04 17:51 51.14682 -0.21389 205 ft 3 kts 148°
2026-05-04 17:51 51.14667 -0.21372 214 ft 0 kts 143°
2026-05-04 17:52 51.14654 -0.21356 209 ft 3 kts 143°
2026-05-04 17:52 51.14633 -0.21338 207 ft 8 kts 154°
2026-05-04 17:52 51.14622 -0.21331 205 ft 0 kts 159°
2026-05-04 17:57 51.14580 -0.21299 208 ft 10 kts 149°
2026-05-04 17:57 51.14528 -0.21225 211 ft 14 kts 117°
2026-05-04 17:58 51.14529 -0.21097 210 ft 0 kts 82°
2026-05-04 17:59 51.14542 -0.21004 215 ft 36 kts 76°
2026-05-04 17:59 51.14652 -0.20223 209 ft 105 kts 77°
2026-05-04 17:59 51.15106 -0.16988 621 ft 173 kts 78°
2026-05-04 18:00 51.15283 -0.15041 1280 ft 182 kts 83°
2026-05-04 18:00 51.15356 -0.13002 1963 ft 186 kts 86°
2026-05-04 18:00 51.15408 -0.10872 2562 ft 199 kts 83°
2026-05-04 18:00 51.15577 -0.08621 3247 ft 209 kts 79°
2026-05-04 18:01 51.15832 -0.06321 4038 ft 213 kts 77°
2026-05-04 18:01 51.16181 -0.03980 4753 ft 225 kts 73°
2026-05-04 18:01 51.16573 -0.01383 4966 ft 257 kts 76°
2026-05-04 18:02 51.16824 0.00484 5001 ft 264 kts 80°
2026-05-04 18:02 51.16918 0.02079 4973 ft 265 kts 88°
2026-05-04 18:02 51.16887 0.05031 5010 ft 267 kts 91°
2026-05-04 18:03 51.16799 0.07991 5030 ft 268 kts 92°
2026-05-04 18:03 51.16701 0.10980 5437 ft 271 kts 92°
2026-05-04 18:03 51.16612 0.13994 6446 ft 274 kts 92°
2026-05-04 18:03 51.16542 0.17066 7298 ft 278 kts 91°
2026-05-04 18:04 51.16523 0.20153 8156 ft 282 kts 90°
2026-05-04 18:04 51.16531 0.23316 9024 ft 287 kts 90°
2026-05-04 18:04 51.16579 0.29772 10542 ft 302 kts 85°
2026-05-04 18:05 51.17163 0.33083 10787 ft 327 kts 61°
2026-05-04 18:05 51.18717 0.35890 11078 ft 347 kts 34°
2026-05-04 18:05 51.20837 0.37818 11720 ft 353 kts 28°
2026-05-04 18:05 51.23009 0.39686 12482 ft 357 kts 28°
2026-05-04 18:06 51.27419 0.43482 14004 ft 363 kts 28°
2026-05-04 18:06 51.29646 0.45417 14660 ft 367 kts 28°
2026-05-04 18:06 51.31896 0.47380 15288 ft 371 kts 29°
2026-05-04 18:07 51.34178 0.49377 15927 ft 376 kts 29°
2026-05-04 18:07 51.36489 0.51405 16565 ft 381 kts 29°
2026-05-04 18:07 51.38824 0.53453 17155 ft 386 kts 29°
2026-05-04 18:07 51.41202 0.55540 17738 ft 391 kts 29°
2026-05-04 18:08 51.43571 0.57621 18300 ft 396 kts 29°
2026-05-04 18:08 51.46023 0.59782 18821 ft 400 kts 29°
2026-05-04 18:08 51.48440 0.61916 19324 ft 403 kts 29°
2026-05-04 18:08 51.50914 0.64101 19869 ft 406 kts 29°
2026-05-04 18:09 51.55908 0.68505 20892 ft 413 kts 27°
2026-05-04 18:09 51.61390 0.71458 21871 ft 420 kts 13°
2026-05-04 18:10 51.64060 0.72461 22326 ft 423 kts 13°
2026-05-04 18:10 51.66806 0.73502 22779 ft 426 kts 13°
2026-05-04 18:10 51.69700 0.74607 22999 ft 428 kts 13°
2026-05-04 18:10 51.72607 0.75721 23031 ft 428 kts 13°
2026-05-04 18:11 51.75434 0.77174 23025 ft 428 kts 27°
2026-05-04 18:11 51.77786 0.80084 23022 ft 428 kts 50°
2026-05-04 18:11 51.79281 0.84198 23024 ft 425 kts 73°
2026-05-04 18:11 51.79692 0.88876 23033 ft 421 kts 96°
2026-05-04 18:12 51.79008 0.93415 23033 ft 416 kts 114°
2026-05-04 18:12 51.78073 0.97838 23036 ft 419 kts 102°
2026-05-04 18:12 51.78079 1.02555 23039 ft 424 kts 79°
2026-05-04 18:12 51.79013 1.07030 23038 ft 427 kts 69°
2026-05-04 18:13 51.80410 1.11271 23036 ft 429 kts 58°
2026-05-04 18:13 51.82029 1.15323 23038 ft 429 kts 58°
2026-05-04 18:13 51.84726 1.22074 23041 ft 429 kts 58°